Miscellaneous Local Product
Issued by NWS Hastings, NE

Home | Current Version | Previous Version | Text Only | Print | Product List | Glossary Off
Versions: 1 2 3 4 5 6 7 8 9 10 11 12 13 14 15 16 17 18 19 20 21 22 23 24 25 26 27 28 29 30 31 32 33 34 35 36 37 38 39 40 41 42 43 44 45 46 47 48 49 50

000
AXUS43 KGID 291902
MISGRI

GID CWA HOURLY WEATHER ROUNDUP
NATIONAL WEATHER SERVICE HASTINGS NE
200 PM CDT SAT APR 29 2017

NOTE: "FAIR" INDICATES FEW OR NO CLOUDS BELOW 12,000 FEET WITH NO
SIGNIFICANT WEATHER AND/OR OBSTRUCTIONS TO VISIBILITY.

...SOUTH CENTRAL NEBRASKA...

CITY           SKY/WX    TMP DP  RH WIND       PRES   REMARKS
GRAND ISLAND   CLOUDY    43  34  70 NE24G31   30.11R
HASTINGS       CLOUDY    42  34  73 N23G35    30.06F
KEARNEY        CLOUDY    43  30  61 N21       30.11R
ORD            CLOUDY    46  29  51 NE14G23   30.14F
YORK           LGT RAIN  41  39  93 NE29G40   30.04F
AURORA         CLOUDY    42  34  72 NE28G36   30.07F
LEXINGTON      LGT RAIN  40  31  70 NE20G29   30.13R WCI  31
HOLDREGE       DRIZZLE   40  32  74 NE28G36   30.09R WCI  29
HEBRON         CLOUDY    42  39  86 NE25G33   29.96S

...NEBRASKA PANHANDLE...

CITY           SKY/WX    TMP DP  RH WIND       PRES   REMARKS
CHADRON        SUNNY     48  22  35 VRB5      30.26F
ALLIANCE       CLOUDY    46  20  35 NE20      30.18F
SCOTTSBLUFF    SUNNY     43  24  47 N14       30.24F
SIDNEY         CLOUDY    41  22  46 N20G28    30.16F

...WESTERN AND NORTH CENTRAL NEBRASKA...

CITY           SKY/WX    TMP DP  RH WIND       PRES   REMARKS
VALENTINE      CLOUDY    52  10  18 NE18G28   30.21F
AINSWORTH      PTSUNNY   49  22  34 NE21G26   30.20F
ONEILL         PTSUNNY   49  25  38 NE16G24   30.19S
BROKEN BOW     CLOUDY    44  27  51 NE17      30.15R
IMPERIAL       CLOUDY    44  27  51 NE20G32   30.12F
NORTH PLATTE   CLOUDY    46  23  40 NE21G29   30.15S
MCCOOK         LGT RAIN  40  34  79 N23G30    30.11S WCI  30

...EASTERN NEBRASKA...

CITY           SKY/WX    TMP DP  RH WIND       PRES   REMARKS
NORFOLK        LGT RAIN  46  29  51 NE15G28   30.14S
SO SIOUX CITY  CLOUDY    49  31  49 E15G24    30.20R
TEKAMAH        CLOUDY    46  34  62 NE16G25   30.15R
COLUMBUS       CLOUDY    45  34  65 NE18G26   30.14S
ALBION         CLOUDY    47  29  50 NE18G24   30.15S
OMAHA EPPLEY   LGT RAIN  45  37  73 NE18G26   30.10F
OFFUTT AFB     LGT RAIN  45  38  78 N16G25    30.06F
MILLARD        LGT RAIN  46  39  76 NE10G22   30.08F
LINCOLN        LGT RAIN  44  40  85 NE22G30   30.04F
NEBRASKA CITY  LGT RAIN  43  43  99 NE17      30.03R
BEATRICE       CLOUDY    44  42  93 NE18G32   29.94F
FALLS CITY     LGT RAIN  46  43  89 NE12G20   29.98R

...NORTHERN KANSAS...

CITY           SKY/WX    TMP DP  RH WIND       PRES   REMARKS
GOODLAND       LGT SNOW  35  33  92 N26G36    30.04F FOG     WCI  22
HILL CITY      LGT RAIN  40  37  89 N28G35    29.99F FOG     WCI  29
NORTON         LGT RAIN  37  34  87 N23       30.05S WCI  26
PHILLIPSBURG   LGT RAIN  43  34  70 N21G33    30.00F
HAYS           LGT RAIN  40  38  93 N32G40    29.90F FOG     WCI  28
RUSSELL        LGT RAIN  41  40  96 N24       29.89R FOG
CONCORDIA      CLOUDY    43  42  97 N18G30    29.87F
SALINA         CLOUDY    46  43  89 N17       29.83F
TOPEKA         LGT RAIN  48  47  96 NE14      29.84F



USA.gov is the U.S. government's official web portal to all federal, state and local government web resources and services.